COSMOS 2514 (751)

Last updated on Wed Sep 09 2026 00:03:24 GMT+0000 (Coordinated Universal Time)

1 41330U 16008A 26250.87499134 -.00000024 00000+0 00000+0 0 9991 2 41330 64.9678 310.1652 0013647 209.1608 150.8383 2.13102565 82382
UTC large
Height (km)
Speed (km/s)
/
Latitude / Longitude
Inclination (degrees)
Orbital Period (minutes)
Azimuth
Elevation
Range (km)
Doppler Factor

Next 0 passes for location: London (51.5072 / 0.1276)

No passes found over London.
COSMOS 2514 (751)